Wind_Speed
10 10 10 11 11 12 12 12 12 13 11 10 7 6 5 6 5 6 9 2 5 7 9 10 9 10 10 9 5 3 5 2 6 4 3 6 10 6 3 8 5 2 21 22 23
9 9 10 11 12 12 13 12 13 13 12 10 8 6 5 5 8 12 5 7 8 11 11 12 10 9 12 5 5 4 2 12 8 8 1 3 6 5 6 7 9 13 22 25 22
9 9 10 11 12 13 13 13 14 13 13 10 7 6 6 5 10 9 1 7 10 12 11 12 9 10 16 6 4 5 1 6 9 12 10 0 9 3 9 10 11 13 17 21 21
10 10 11 12 13 13 14 15 15 15 14 8 6 6 5 6 0 6 5 10 12 10 9 11 11 14 12 2 11 4 7 6 6 10 6 7 5 2 11 9 10 16 19 18 17
11 11 13 13 14 14 15 15 16 16 13 5 4 5 4 9 8 4 4 12 11 10 13 11 12 16 10 5 6 6 9 8 6 10 3 2 12 4 8 4 10 17 17 17 13
12 13 13 14 15 15 15 16 16 16 7 1 2 4 8 2 6 4 10 12 11 11 10 10 10 6 10 1 5 10 10 10 7 8 10 8 7 3 5 4 14 17 17 14 13
13 14 15 15 16 16 15 15 16 9 2 0 1 4 7 9 4 6 9 10 9 9 8 9 6 9 2 8 2 7 8 9 6 11 10 12 5 3 8 12 13 14 14 14 10
14 15 15 17 16 15 14 14 9 3 1 0 2 5 5 4 2 5 7 7 7 6 8 3 9 14 11 7 5 8 10 9 8 7 8 11 8 8 7 11 6 11 12 9 18
15 16 17 18 17 14 12 9 3 1 2 1 4 9 9 5 8 7 3 6 9 8 6 5 11 15 9 10 14 13 3 11 8 6 7 12 4 22 14 11 8 4 11 15 11
18 17 19 18 15 11 10 3 4 2 4 7 11 9 7 5 4 5 4 5 8 9 8 11 9 13 12 14 8 13 17 13 11 8 8 9 3 20 16 11 11 10 8 13 17
20 20 20 16 11 9 7 3 6 7 13 7 5 4 7 9 8 8 7 7 8 11 12 15 13 15 17 17 2 4 3 12 5 7 5 7 9 18 17 14 14 12 16 9 19
22 21 19 13 8 5 7 5 9 7 2 4 3 3 1 3 7 7 8 8 9 13 14 11 16 15 17 12 5 7 7 5 7 6 6 7 5 13 20 21 18 15 13 15 14
23 22 17 9 5 5 7 6 7 9 7 6 3 1 8 12 3 9 11 2 9 8 11 13 14 15 7 4 9 11 1 5 8 10 9 7 10 13 15 17 18 16 15 19 18
24 23 15 6 3 2 4 4 8 5 6 10 10 6 7 5 6 5 8 5 5 9 9 12 3 5 9 14 12 14 6 8 2 9 2 14 4 13 17 15 17 16 22 20 17
26 22 12 6 11 11 4 8 7 5 5 5 7 5 3 8 6 8 4 7 5 4 10 9 3 9 15 16 12 12 9 11 6 9 15 14 7 7 18 15 18 22 26 24 15
27 20 9 3 8 10 7 10 7 8 1 7 6 9 12 6 3 8 7 8 2 4 9 6 5 11 13 10 8 12 4 7 9 13 12 14 12 2 8 15 17 24 25 24 20
27 17 8 7 3 3 8 8 8 8 4 7 5 7 7 8 7 10 10 11 7 10 11 11 10 9 8 9 12 11 13 11 12 10 3 10 8 7 14 8 18 26 25 20 21
24 13 7 11 6 7 10 9 12 5 5 5 4 5 9 6 8 5 7 11 6 8 4 9 13 16 13 16 13 14 18 12 1 10 4 15 5 2 7 2 5 24 25 22 20
19 6 11 8 10 8 8 11 5 2 3 5 7 13 9 7 8 8 11 4 5 5 9 3 3 11 10 14 16 12 14 21 1 17 6 4 5 11 8 7 5 10 16 20 19
13 12 13 10 9 10 8 15 3 5 3 5 10 1 5 11 7 6 7 6 2 2 10 3 2 6 9 9 11 16 9 11 6 9 7 10 12 3 6 9 6 3 12 18 20
7 6 10 11 10 8 11 12 4 7 7 7 5 4 8 4 8 7 9 10 2 4 5 13 4 11 9 11 6 7 13 14 4 3 6 2 1 6 5 9 8 5 5 8 13
9 9 12 15 9 10 13 12 1 8 9 10 8 8 4 3 10 5 4 6 3 9 9 5 12 1 9 7 9 8 14 13 7 8 7 3 4 18 7 10 10 8 4 10 11
5 7 9 15 13 14 15 5 7 11 9 9 7 3 4 8 5 6 1 8 4 10 11 11 9 9 15 18 17 14 17 5 7 9 3 4 3 10 4 10 10 9 7 8 11
5 6 6 9 14 20 13 13 14 12 12 7 6 1 6 11 6 6 7 8 2 5 6 6 15 17 1 4 8 20 5 20 13 4 13 11 6 15 5 10 10 10 9 6 13
5 8 5 7 14 19 18 10 17 11 11 10 8 7 8 6 7 8 14 6 10 10 9 8 13 11 3 11 22 12 6 18 11 2 16 5 13 8 8 8 11 8 8 6 10
6 5 6 12 12 12 16 17 14 15 11 14 12 12 9 7 4 7 6 7 7 9 6 9 9 7 13 11 10 15 14 7 9 5 20 23 16 11 9 8 10 9 8 12 9
9 12 5 10 13 13 13 16 19 15 14 9 12 12 10 9 3 7 8 10 4 3 12 2 12 5 12 7 15 14 13 11 8 10 6 9 7 11 6 7 7 7 7 7 8
Wind_Direction
22 17 12 8 4 2 0 359 353 350 342 335 336 324 314 306 295 247 240 129 198 219 194 209 226 223 232 241 200 236 101 279 312 115 199 148 128 75 67 140 133 69 137 133 144
8 3 360 356 353 351 349 349 347 346 341 336 330 322 314 319 277 237 218 250 221 192 208 204 209 212 225 192 202 113 217 182 183 142 277 100 89 118 144 119 135 85 106 133 149
355 350 348 343 343 341 339 340 338 337 339 334 333 322 312 337 257 105 255 220 195 186 235 225 260 232 247 246 108 300 180 106 152 132 208 71 113 146 175 160 140 140 137 150 161
346 342 338 336 337 335 333 332 329 329 329 325 328 320 303 264 88 65 324 180 181 196 236 221 234 226 235 189 126 104 55 75 129 150 183 199 176 69 60 39 98 128 147 156 170
347 341 336 335 333 331 328 325 324 324 324 316 313 308 295 212 43 359 170 162 176 206 218 214 220 238 255 144 161 134 114 100 147 145 160 143 55 48 53 119 145 136 154 165 165
345 341 339 335 330 326 323 320 321 324 330 319 301 305 254 128 16 107 148 166 188 206 213 225 228 304 309 170 306 113 113 125 124 118 156 106 36 31 45 334 131 145 157 166 157
344 340 335 330 327 322 318 319 321 328 342 340 263 273 276 70 89 113 157 183 187 220 203 228 296 228 132 191 87 121 140 140 137 139 144 133 60 89 304 322 154 165 149 157 138
343 337 333 329 324 319 317 318 323 329 29 272 303 265 78 123 119 138 149 168 193 201 272 184 240 266 249 87 198 224 195 176 155 181 146 205 177 202 257 291 222 164 165 156 141
345 338 333 329 322 318 317 316 331 90 332 248 271 229 111 175 208 181 197 187 185 194 216 244 242 241 212 211 195 193 197 327 134 180 172 205 155 191 193 244 268 277 216 158 151
345 339 333 329 320 316 319 280 276 256 309 250 267 261 170 86 110 177 175 180 184 180 194 213 219 223 226 224 240 334 166 197 142 170 217 216 199 164 183 207 248 253 256 195 176
347 340 335 329 317 315 325 270 206 201 218 320 58 66 127 99 155 169 176 192 199 203 203 205 217 214 211 232 47 215 255 95 280 130 209 233 188 170 177 193 196 245 261 222 220
348 340 339 330 309 302 306 285 26 346 152 126 85 131 117 240 130 156 197 202 201 209 222 189 223 227 245 229 216 238 250 170 108 158 235 248 255 168 185 198 192 221 246 272 237
348 343 342 329 296 280 280 8 332 330 253 153 133 153 145 221 104 149 224 189 219 223 220 224 209 240 190 231 245 243 269 5 104 234 225 260 244 186 185 198 186 211 234 255 265
348 342 340 319 267 272 239 333 318 304 266 139 183 113 174 261 105 139 243 300 218 226 210 237 213 137 213 238 225 256 338 172 35 271 134 247 314 200 186 193 191 201 225 236 238
344 336 332 275 313 256 11 328 321 245 248 116 115 97 154 262 128 158 198 222 224 176 234 181 172 208 228 225 210 107 225 249 257 277 275 248 240 134 170 204 189 200 209 224 242
338 329 322 276 246 264 297 312 279 238 181 143 152 201 205 181 109 116 184 245 354 204 238 331 230 213 227 229 246 262 215 245 241 249 260 258 226 139 210 201 191 194 204 210 238
334 320 276 242 268 280 291 273 232 261 91 170 193 195 241 143 149 184 191 201 217 202 188 200 199 228 252 233 216 233 235 235 223 211 255 25 293 103 210 157 178 189 210 199 224
332 309 267 220 253 277 269 243 261 16 226 113 250 181 210 179 137 185 197 226 175 280 238 216 178 197 185 239 216 214 243 253 3 277 27 322 218 174 89 90 210 178 192 209 195
333 270 226 230 223 240 256 237 244 242 35 244 165 241 161 168 292 206 237 44 28 296 307 215 176 160 195 211 247 203 228 262 94 247 241 307 103 182 63 81 133 191 180 195 200
326 261 220 184 195 220 241 261 341 279 287 255 260 185 267 162 217 227 191 125 152 306 294 352 268 188 176 228 235 267 309 237 203 236 267 192 275 109 30 51 85 168 178 177 194
271 232 134 174 191 230 239 242 177 183 228 252 274 250 283 277 270 199 172 126 221 131 275 301 237 267 152 212 7 218 235 254 284 118 261 5 310 13 70 51 39 127 187 152 221
281 241 153 173 214 228 231 247 13 179 204 254 285 299 278 124 222 249 254 117 328 305 278 299 312 289 353 140 172 254 278 346 352 318 58 50 245 317 57 54 45 79 91 114 149
275 269 166 205 226 229 231 231 211 230 197 220 237 238 316 261 266 292 61 77 329 284 11 337 262 260 212 196 163 206 137 186 65 299 59 138 225 241 113 71 44 48 82 113 131
274 235 185 210 246 257 243 207 215 232 272 224 254 264 252 245 216 274 223 146 200 346 10 293 274 282 199 259 260 288 290 148 147 201 272 232 245 292 97 92 66 23 357 92 160
241 257 356 203 219 239 253 225 228 211 209 220 222 248 261 250 225 225 254 164 188 141 238 261 277 305 298 173 215 170 275 275 222 68 210 349 313 90 65 57 63 23 359 114 134
299 321 335 272 298 262 227 250 240 231 202 219 230 210 250 243 276 315 227 256 275 178 230 260 273 283 290 276 264 268 235 278 307 257 115 140 231 67 81 57 55 47 20 28 91
359 284 269 284 253 249 247 225 243 245 255 224 221 240 199 227 169 343 322 314 283 325 276 324 290 277 261 44 336 263 249 241 225 242 252 326 115 113 96 77 63 48 53 47 20
Height
808 806 804 802 800 797 795 793 790 788 786 784 782 781 780 779 778 778 772 771 771 772 773 771 770 766 762 750 754 750 793 812 794 792 797 764 768 766 763 769 765 768 770 782 795
808 806 804 802 800 797 795 793 790 787 785 783 782 780 779 778 777 771 769 770 771 771 772 768 764 761 754 749 748 764 784 782 779 790 794 771 781 769 771 775 774 772 776 788 797
808 805 803 801 799 797 794 791 789 786 784 782 781 779 778 777 773 759 768 769 770 770 770 765 760 757 749 742 748 760 773 764 769 782 781 776 771 770 777 783 774 781 785 792 796
808 805 803 801 798 796 793 790 788 785 783 781 780 778 777 780 767 764 767 768 769 771 769 765 760 759 746 758 749 767 763 763 772 781 781 779 773 776 780 772 766 776 787 792 793
807 805 803 800 798 795 792 789 786 783 781 779 779 778 778 768 762 766 766 768 770 770 765 760 758 752 750 742 748 768 767 767 768 775 783 776 787 782 783 774 771 779 787 790 791
807 804 802 799 796 793 790 788 785 782 779 778 778 777 776 764 768 767 768 769 768 767 762 758 752 744 745 747 752 748 762 769 770 776 782 788 799 790 789 779 776 782 785 789 794
806 804 801 798 795 792 789 786 783 780 779 778 777 777 765 767 768 768 768 767 767 764 761 758 755 754 745 749 746 755 773 769 778 780 789 793 814 808 799 790 780 784 787 789 795
806 803 799 796 793 790 787 784 782 779 778 777 776 778 766 769 768 767 766 767 768 767 763 761 762 753 748 745 752 762 761 783 775 774 783 787 821 813 805 800 789 787 789 791 795
805 801 798 794 791 787 785 783 781 779 778 777 777 773 764 768 767 764 764 762 766 766 766 765 762 754 751 760 763 754 787 806 783 772 780 787 802 804 806 802 799 797 790 790 794
804 800 796 792 789 786 783 782 780 779 778 779 776 772 763 760 762 763 765 764 763 762 764 764 760 760 756 755 779 785 764 768 783 777 778 786 792 792 802 806 802 800 797 789 791
803 798 794 791 788 785 782 782 782 778 770 761 755 756 756 762 763 763 764 763 761 761 767 761 769 769 752 741 756 758 762 774 785 768 778 781 783 792 800 805 805 803 798 789 791
801 797 793 789 787 785 782 770 771 772 765 759 759 756 758 757 762 761 762 759 763 768 756 765 771 746 738 739 751 755 758 770 766 768 775 780 777 779 790 792 798 805 793 791 785
800 796 792 788 787 785 780 775 775 773 762 758 753 750 753 754 754 758 758 754 759 761 763 762 752 739 747 757 762 756 760 774 775 783 767 775 778 780 779 784 794 801 798 791 788
799 795 791 788 790 781 775 777 775 774 769 764 755 752 753 748 757 753 753 752 758 761 757 755 738 751 760 763 757 761 746 762 769 775 795 763 786 775 776 785 795 800 794 784 784
798 793 790 789 786 778 778 776 774 773 788 755 750 748 746 750 752 757 754 752 758 758 758 755 754 764 765 757 748 770 759 761 760 766 759 750 767 763 761 783 784 791 786 779 774
796 791 789 788 786 780 778 776 773 783 786 759 747 752 753 747 750 751 756 751 746 755 754 751 743 749 750 745 744 744 756 758 760 762 775 745 753 793 779 768 765 778 773 770 770
793 788 786 785 778 779 778 773 781 776 750 760 751 745 746 753 755 754 759 761 760 771 768 758 757 747 744 755 744 754 764 778 781 772 775 771 754 777 772 743 747 769 763 762 764
788 784 783 781 781 780 777 774 789 757 755 743 748 748 754 750 751 753 756 756 748 751 751 762 774 752 743 752 753 758 755 767 799 818 790 780 767 797 740 736 733 739 750 755 764
784 780 780 776 778 780 775 777 758 754 745 751 748 753 752 751 754 754 753 747 746 743 761 753 756 736 738 740 743 750 765 733 766 755 770 791 766 751 736 739 738 739 741 752 752
785 774 767 773 776 776 773 772 750 744 746 749 759 750 754 748 756 754 754 745 748 745 738 743 766 740 740 739 739 745 736 760 752 800 797 803 809 792 756 750 746 743 741 744 752
783 766 763 770 774 768 771 750 745 741 746 752 751 753 749 752 749 750 749 745 745 744 741 738 747 773 743 755 789 753 758 745 742 768 807 807 816 750 758 748 745 744 742 744 749
777 768 764 767 772 757 755 740 752 740 744 746 746 745 748 748 751 750 751 747 744 741 750 735 743 766 762 751 768 784 778 761 778 774 792 814 823 760 752 747 743 746 746 748 756
774 755 762 763 768 753 741 742 743 743 744 747 749 746 742 751 763 750 747 743 746 747 753 745 749 762 756 746 765 765 770 788 814 807 789 812 802 753 753 754 753 751 749 753 763
781 765 752 757 747 741 740 744 748 739 740 737 744 744 750 755 749 757 754 745 749 747 761 755 751 755 773 792 793 778 768 776 801 829 797 773 774 789 766 757 763 765 756 752 764
776 759 748 750 749 744 736 734 744 744 740 738 748 750 750 759 755 758 751 745 747 760 757 751 764 752 749 756 763 781 788 755 754 759 785 809 802 767 768 777 767 773 762 759 770
779 767 755 751 741 742 747 742 741 737 736 746 752 746 747 759 754 755 749 749 751 748 751 744 765 756 762 744 745 753 742 743 747 752 781 806 801 759 777 776 776 779 782 780 772
785 782 778 760 749 747 741 739 740 735 730 729 735 744 749 747 741 741 741 740 742 753 756 757 758 763 771 761 770 762 743 742 744 749 752 769 762 756 772 779 785 785 788 791 791